Weather History for Mandan, ND

Change the Weather History Date:

Friday, December 14, 2012

  Actual Average (KBIS) Record (KBIS)
Temperature  
Mean Temperature 18 °F 16 °F  
Max Temperature 23 °F 26 °F 61 °F (1998)
Min Temperature 12 °F 6 °F -32 °F (1989)
Degree Days  
Heating Degree Days 48 49  
Month to date heating degree days 650  
Since 1 July heating degree days 2636  
Cooling Degree Days 0 0  
Month to date cooling degree days 0  
Year to date cooling degree days 520  
Moisture  
Dew Point 17 °F    
Average Humidity 100    
Maximum Humidity 100    
Minimum Humidity 100    
Precipitation  
Precipitation 0.00 in 0.01 in 0.29 in (2008)
Month to date precipitation 0.21  
Year to date precipitation 17.57  
Snow  
Snow 0.00 in 0.20 in 6.60 in (2008)
Month to date snowfall 3.8  
Since 1 July snowfall 15.0  
Snow Depth -    
Sea Level Pressure  
Sea Level Pressure 29.77 in    
Wind  
Wind Speed 7 mph (SSE)    
Max Wind Speed 13 mph    
Max Gust Speed -    
Visibility 1 miles    
Events Fog    
T = Trace of Precipitation, MM = Missing Value Source: NWS Daily Summary

Daily Weather History Graph

Daily Weather History Graph

Search for Another Location

Airport:

Trip Planner

Search our weather history database for the weather conditions in past years. The results will help you decide how hot, cold, wet, or windy it might be!

Date:

Astronomy

Dec. 14, 2012 Rise Set
Actual Time 8:21 AM CST 4:55 PM CST
Civil Twilight 7:46 AM CST 5:30 PM CST
Nautical Twilight 7:07 AM CST 6:09 PM CST
Astronomical Twilight 6:30 AM CST 6:46 PM CST
Moon 9:24 AM CST (12/14) 6:54 PM CST (12/14)
Length of Visible Light 9h 44m
Length of Day
8h 34m
Waxing Crescent, 3% of the Moon is Illuminated
Dec 14
Waxing Crescent
Dec 19
First Quarter
Dec 28
Full
Jan 4
Last Quarter
Jan 11
New

Hourly Weather History & Observations

Time (CST) Temp. Windchill Dew Point Humidity Pressure Visibility Wind Dir Wind Speed Gust Speed Precip Events Conditions
12:15 AM 23.0 °F 11.7 °F 23.0 °F 100% 29.92 in 0.5 mi South 11.5 mph - N/A Fog Light Freezing Fog
12:35 AM 23.0 °F 12.4 °F 23.0 °F 100% 29.91 in 0.5 mi South 10.4 mph - N/A Fog Light Freezing Fog
12:55 AM 23.0 °F 11.1 °F 23.0 °F 100% 29.90 in 0.5 mi SSE 12.7 mph - N/A Fog Light Freezing Fog
1:15 AM 23.0 °F 12.4 °F 23.0 °F 100% 29.90 in 0.5 mi South 10.4 mph - N/A Fog Light Freezing Fog
1:35 AM 23.0 °F 11.1 °F 23.0 °F 100% 29.90 in 0.5 mi South 12.7 mph - N/A Fog Light Freezing Fog
1:55 AM 23.0 °F 11.7 °F 23.0 °F 100% 29.89 in 0.5 mi South 11.5 mph - N/A Fog Light Freezing Fog
2:15 AM 21.2 °F 9.5 °F 21.2 °F 100% 29.89 in 1.2 mi South 11.5 mph - N/A   Overcast
2:35 AM 21.2 °F 9.5 °F 21.2 °F 100% 29.88 in 1.8 mi SSE 11.5 mph - N/A   Overcast
2:55 AM 19.4 °F 9.5 °F 19.4 °F 100% 29.88 in 3.0 mi SSE 8.1 mph - N/A   Overcast
3:15 AM 19.4 °F 8.6 °F 19.4 °F 100% 29.87 in 1.8 mi SSE 9.2 mph - N/A   Overcast
3:35 AM 19.4 °F 8.6 °F 19.4 °F 100% 29.87 in 0.8 mi SSE 9.2 mph - N/A   Overcast
3:55 AM 17.6 °F 7.3 °F 17.6 °F 100% 29.86 in 1.0 mi SSE 8.1 mph - N/A   Overcast
4:15 AM 17.6 °F 8.2 °F 17.6 °F 100% 29.86 in 1.5 mi South 6.9 mph - N/A   Overcast
4:35 AM 15.8 °F 6.1 °F 15.8 °F 100% 29.85 in 2.5 mi SSE 6.9 mph - N/A   Overcast
4:55 AM 15.8 °F 6.1 °F 15.8 °F 100% 29.84 in 0.5 mi SSE 6.9 mph - N/A Fog Light Freezing Fog
5:15 AM 15.8 °F 7.2 °F 15.8 °F 100% 29.84 in 0.5 mi SE 5.8 mph - N/A Fog Light Freezing Fog
5:35 AM 15.8 °F 6.1 °F 15.8 °F 100% 29.83 in 0.5 mi SSE 6.9 mph - N/A Fog Light Freezing Fog
5:55 AM 14.0 °F 3.9 °F 14.0 °F 100% 29.83 in 1.0 mi South 6.9 mph - N/A   Overcast
6:15 AM 14.0 °F 5.1 °F 14.0 °F 100% 29.82 in 0.2 mi South 5.8 mph - N/A Fog Light Freezing Fog
6:35 AM 14.0 °F 5.1 °F 14.0 °F 100% 29.81 in 1.0 mi SE 5.8 mph - N/A   Overcast
6:55 AM 14.0 °F 3.9 °F 14.0 °F 100% 29.81 in 1.0 mi SSE 6.9 mph - N/A   Overcast
7:15 AM 12.2 °F 4.3 °F 12.2 °F 100% 29.81 in 1.8 mi SE 4.6 mph - N/A   Overcast
7:35 AM 12.2 °F 2.9 °F 12.2 °F 100% 29.81 in - SSE 5.8 mph - N/A   Overcast
7:55 AM 12.2 °F 4.3 °F 12.2 °F 100% 29.81 in - SSE 4.6 mph - N/A   Overcast
8:15 AM 12.2 °F 4.3 °F 12.2 °F 100% 29.82 in - SE 4.6 mph - N/A   Overcast
8:35 AM 12.2 °F 2.9 °F 12.2 °F 100% 29.81 in 0.2 mi ESE 5.8 mph - N/A Fog Light Freezing Fog
8:55 AM 12.2 °F 0.7 °F 12.2 °F 100% 29.82 in 0.2 mi SE 8.1 mph - N/A Fog Light Freezing Fog
9:15 AM 12.2 °F 1.7 °F 12.2 °F 100% 29.81 in 0.2 mi SE 6.9 mph - N/A Fog Light Freezing Fog
9:35 AM 14.0 °F 3.9 °F 14.0 °F 100% 29.81 in 0.2 mi SSE 6.9 mph - N/A Fog Light Freezing Fog
9:55 AM 14.0 °F 5.1 °F 14.0 °F 100% 29.81 in - SSE 5.8 mph - N/A   Overcast
10:15 AM 14.0 °F 3.9 °F 14.0 °F 100% 29.81 in - SSE 6.9 mph - N/A   Overcast
10:35 AM 15.8 °F 7.2 °F 15.8 °F 100% 29.80 in - SSE 5.8 mph - N/A   Overcast
10:55 AM 15.8 °F 6.1 °F 15.8 °F 100% 29.79 in 0.2 mi SE 6.9 mph - N/A Fog Light Freezing Fog
11:15 AM 15.8 °F 6.1 °F 15.8 °F 100% 29.79 in 0.2 mi SSE 6.9 mph - N/A Fog Light Freezing Fog
11:35 AM 15.8 °F 8.6 °F 15.8 °F 100% 29.78 in 0.2 mi South 4.6 mph - N/A Fog Light Freezing Fog
11:55 AM 15.8 °F 7.2 °F 15.8 °F 100% 29.77 in 1.2 mi South 5.8 mph - N/A   Overcast
12:15 PM 15.8 °F 6.1 °F 15.8 °F 100% 29.76 in - South 6.9 mph - N/A   Overcast
12:35 PM 17.6 °F 9.3 °F 17.6 °F 100% 29.75 in - South 5.8 mph - N/A   Overcast
12:55 PM 17.6 °F 7.3 °F 17.6 °F 100% 29.75 in - South 8.1 mph - N/A   Overcast
1:15 PM 17.6 °F 9.3 °F 17.6 °F 100% 29.74 in 0.2 mi South 5.8 mph - N/A Fog Light Freezing Fog
1:35 PM 17.6 °F 9.3 °F 17.6 °F 100% 29.73 in - SSW 5.8 mph - N/A   Overcast
1:55 PM 17.6 °F 10.7 °F 17.6 °F 100% 29.71 in - SW 4.6 mph - N/A   Overcast
2:15 PM 17.6 °F 12.3 °F 17.6 °F 100% 29.71 in - SSW 3.5 mph - N/A   Overcast
2:35 PM 17.6 °F 12.3 °F 17.6 °F 100% 29.70 in - SW 3.5 mph - N/A   Overcast
2:55 PM 17.6 °F 10.7 °F 17.6 °F 100% 29.70 in - SW 4.6 mph - N/A   Overcast
3:15 PM 17.6 °F 12.3 °F 17.6 °F 100% 29.69 in - SW 3.5 mph - N/A   Overcast
3:35 PM 17.6 °F - 17.6 °F 100% 29.69 in 0.2 mi Calm Calm - N/A Fog Light Freezing Fog
3:55 PM 17.6 °F - 17.6 °F 100% 29.69 in 0.2 mi Calm Calm - N/A Fog Light Freezing Fog
4:15 PM 17.6 °F - 17.6 °F 100% 29.69 in 0.2 mi Calm Calm - N/A Fog Light Freezing Fog
4:35 PM 17.6 °F - 17.6 °F 100% 29.69 in 0.2 mi Calm Calm - N/A Fog Light Freezing Fog
4:55 PM 17.6 °F - 17.6 °F 100% 29.69 in 0.2 mi Calm Calm - N/A Fog Light Freezing Fog
5:15 PM 17.6 °F 12.3 °F 17.6 °F 100% 29.68 in 0.2 mi North 3.5 mph - N/A Fog Light Freezing Fog
5:35 PM 17.6 °F 12.3 °F 17.6 °F 100% 29.69 in 0.2 mi ENE 3.5 mph - N/A Fog Light Freezing Fog
5:55 PM 17.6 °F - 17.6 °F 100% 29.69 in 0.2 mi Calm Calm - N/A Fog Light Freezing Fog
6:15 PM 15.8 °F 10.2 °F 15.8 °F 100% 29.69 in 0.2 mi NE 3.5 mph - N/A Fog Light Freezing Fog
6:35 PM 15.8 °F - 15.8 °F 100% 29.70 in 0.2 mi Calm Calm - N/A Fog Light Freezing Fog
6:55 PM 15.8 °F 10.2 °F 15.8 °F 100% 29.70 in 0.2 mi ENE 3.5 mph - N/A Fog Light Freezing Fog
7:15 PM 17.6 °F 10.7 °F 17.6 °F 100% 29.69 in 0.2 mi East 4.6 mph - N/A Fog Light Freezing Fog
7:35 PM 15.8 °F - 15.8 °F 100% 29.69 in 0.8 mi Calm Calm - N/A   Overcast
7:55 PM 15.8 °F - 15.8 °F 100% 29.69 in 0.8 mi Calm Calm - N/A   Overcast
8:15 PM 15.8 °F - 15.8 °F 100% 29.69 in 1.2 mi Calm Calm - N/A   Overcast
8:35 PM 15.8 °F - 15.8 °F 100% 29.68 in 0.2 mi Calm Calm - N/A Fog Light Freezing Fog
8:55 PM 15.8 °F 10.2 °F 15.8 °F 100% 29.68 in 0.2 mi NNE 3.5 mph - N/A Fog Light Freezing Fog
9:15 PM 15.8 °F 8.6 °F 15.8 °F 100% 29.69 in 0.2 mi ESE 4.6 mph - N/A Fog Light Freezing Fog
9:35 PM 15.8 °F 10.2 °F 15.8 °F 100% 29.70 in 0.2 mi SE 3.5 mph - N/A Fog Light Freezing Fog
9:55 PM 14.0 °F - 14.0 °F 100% 29.70 in 0.2 mi Calm Calm - N/A Fog Light Freezing Fog
10:15 PM 14.0 °F - 14.0 °F 100% 29.69 in 0.2 mi Calm Calm - N/A Fog Light Freezing Fog
10:35 PM 14.0 °F 8.2 °F 14.0 °F 100% 29.69 in 0.2 mi NW 3.5 mph - N/A Fog Light Freezing Fog
10:55 PM 14.0 °F 8.2 °F 14.0 °F 100% 29.68 in 0.2 mi NW 3.5 mph - N/A Fog Light Freezing Fog
11:15 PM 14.0 °F 8.2 °F 14.0 °F 100% 29.67 in 0.2 mi NW 3.5 mph - N/A Fog Light Freezing Fog
11:35 PM 14.0 °F 5.1 °F 14.0 °F 100% 29.67 in 0.2 mi NW 5.8 mph - N/A Fog Light Freezing Fog
11:55 PM 14.0 °F 6.5 °F 14.0 °F 100% 29.68 in 0.2 mi NW 4.6 mph - N/A Fog Light Freezing Fog